Theta_e
284 283 283 283 285 285 285 285 284 284 284 284 284 284 283 284 282 282 282 282 281 281 281 280 280 281 281 282 282 283 283 284 286 286 287 290 292 291 291 295 297 296 297
281 282 282 282 284 285 285 284 284 283 283 283 283 283 283 283 282 281 281 281 280 280 280 279 279 280 280 281 281 281 281 283 285 283 285 283 287 289 291 292 294 293 296
282 282 281 281 283 284 283 283 283 282 282 282 282 282 282 281 281 280 279 279 279 279 278 278 278 279 280 280 280 281 281 280 283 285 283 280 280 284 288 290 292 291 295
284 283 282 281 282 283 283 283 282 281 281 280 280 279 279 278 278 277 278 278 278 277 277 277 277 278 279 280 280 281 281 281 280 283 285 286 285 281 280 287 289 291 293
284 283 282 282 283 283 282 282 281 280 279 279 279 278 278 278 277 276 276 276 276 276 276 276 277 278 279 280 280 281 281 281 281 282 282 283 285 285 282 280 283 288 291
284 284 284 283 281 282 281 281 280 279 279 278 277 277 276 275 275 274 274 274 274 275 275 276 276 277 278 279 280 281 280 281 282 282 282 282 282 281 281 280 281 283 288
282 281 281 281 280 281 280 280 279 278 278 278 277 276 275 274 273 273 272 272 272 273 274 275 276 277 278 279 280 281 281 281 281 282 282 283 284 284 284 283 282 282 288
282 281 281 281 281 281 280 280 279 278 277 277 276 275 275 274 273 272 272 271 271 272 274 274 276 277 278 279 280 280 281 281 281 281 282 282 284 284 284 283 282 281 285
280 281 281 281 281 281 280 279 279 278 277 277 275 273 273 272 271 271 271 271 272 273 273 274 275 277 278 279 280 280 280 281 281 282 282 281 283 284 284 285 286 283 280
279 280 281 281 282 281 280 279 279 278 277 276 274 273 272 271 271 271 270 271 271 272 273 274 275 276 277 278 280 279 280 280 281 281 281 280 281 283 284 285 286 286 284
279 279 280 281 281 281 279 279 278 277 276 275 274 272 271 271 271 270 270 270 271 271 272 273 274 275 276 278 279 278 278 278 279 280 280 279 280 281 282 284 286 285 286
279 279 280 280 279 279 278 278 277 276 276 274 273 272 271 270 270 269 269 270 270 271 272 273 274 275 276 277 278 276 278 277 276 277 278 278 279 280 282 284 285 285 286
278 278 279 279 279 279 278 277 276 276 274 273 272 271 270 269 268 268 268 269 269 270 271 272 273 274 275 277 279 277 276 277 276 276 277 277 277 278 281 284 284 284 286
278 278 278 279 279 279 278 277 276 275 273 272 271 270 269 268 267 266 265 265 267 268 268 270 271 272 275 279 279 277 276 277 276 276 277 277 277 278 281 285 285 284 284
278 278 279 279 278 278 277 276 275 274 272 271 269 269 268 266 264 262 262 263 265 266 266 268 269 271 275 280 279 277 275 276 275 276 276 277 278 280 282 285 285 284 283
280 279 280 279 278 278 277 276 274 272 271 269 267 266 264 262 261 260 261 263 264 264 265 266 268 270 274 281 280 278 274 275 274 274 275 276 278 279 283 287 287 286 283
282 280 280 279 280 279 278 275 273 272 270 268 264 263 262 260 259 260 262 263 263 264 264 265 268 268 271 280 280 277 275 275 274 273 274 275 278 279 284 284 286 284 285
286 282 281 280 280 280 277 275 272 270 268 265 263 262 262 262 260 261 262 261 264 265 267 266 267 269 270 279 279 276 274 274 273 273 273 274 277 280 283 282 284 283 283
284 283 282 281 280 278 276 273 271 269 267 264 263 262 263 262 261 262 262 263 266 267 267 268 267 268 269 278 279 274 273 272 271 272 272 274 278 283 284 281 281 282 282
280 281 282 280 279 276 273 272 270 268 267 265 264 263 264 263 263 263 262 264 266 267 269 270 268 267 269 275 278 276 272 270 270 271 272 276 280 282 283 280 280 279 280
277 280 280 278 277 274 274 272 270 269 268 266 264 264 265 264 265 265 265 265 266 266 265 268 268 269 269 271 277 277 273 270 269 269 270 274 280 280 281 281 280 279 279
279 278 278 276 274 274 273 272 270 270 266 265 265 264 265 267 267 266 267 267 267 267 266 267 268 269 270 274 275 275 275 274 268 269 271 274 278 277 279 278 279 279 277
277 276 275 272 272 273 274 271 271 267 266 265 265 265 266 267 267 267 267 267 267 267 267 268 267 268 270 271 274 273 273 273 268 270 272 274 275 274 272 276 276 273 274
274 273 271 270 270 272 274 273 267 267 266 265 265 265 266 266 267 268 268 267 266 266 267 267 267 267 269 271 272 270 270 270 268 266 266 270 271 272 271 269 270 271 271
273 272 271 270 270 271 272 267 268 268 266 266 266 266 267 267 267 267 267 267 267 268 266 266 267 266 267 272 274 272 270 269 268 261 264 264 264 265 266 267 266 268 269
271 271 270 270 270 271 268 268 268 268 267 266 266 267 267 266 266 266 267 273 271 274 274 273 270 270 274 274 273 273 272 270 268 260 260 260 261 261 262 263 264 266 266
Wind_Speed
10 8 11 10 9 8 8 7 6 3 2 1 1 0 1 2 2 5 7 10 11 11 9 9 10 10 10 12 12 12 15 11 13 12 13 10 12 13 10 12 12 14 13
10 13 13 11 11 10 8 7 6 4 3 2 1 0 0 1 1 5 8 9 10 10 10 10 9 10 10 12 13 13 11 9 12 11 11 11 11 15 9 11 12 18 10
19 16 15 14 11 10 10 9 7 6 4 3 1 1 1 0 3 6 6 9 10 11 10 10 10 10 9 9 11 12 15 10 12 14 7 8 8 16 9 12 12 17 9
16 16 18 15 14 11 9 9 8 7 4 4 4 4 2 2 2 4 6 7 9 10 10 11 11 10 8 10 10 10 10 10 11 10 9 10 11 8 11 11 13 14 11
18 18 20 18 14 11 10 9 9 7 6 5 4 3 3 1 3 4 7 9 8 9 11 11 10 10 8 10 12 12 12 9 8 9 10 11 10 10 7 11 16 12 10
13 11 13 14 13 11 10 9 10 7 7 6 5 5 4 3 5 6 6 7 7 7 10 12 10 10 10 11 10 12 12 10 9 9 10 10 11 11 9 10 14 13 8
11 12 15 15 14 15 13 11 11 9 7 7 5 5 4 4 4 5 5 7 7 7 9 11 10 9 11 11 11 11 10 11 9 10 9 9 9 9 9 8 10 9 5
10 13 16 16 17 17 15 13 12 10 9 7 6 5 4 3 3 4 4 4 5 6 9 9 9 10 11 11 10 8 9 10 10 13 12 10 9 10 10 8 9 8 4
10 13 14 15 17 16 16 15 13 11 10 8 7 5 4 4 3 4 4 4 5 6 8 9 9 10 10 11 9 8 10 10 10 9 12 10 9 10 10 9 7 5 5
7 9 12 14 14 14 13 13 12 13 11 9 7 5 5 4 3 3 4 5 6 7 8 9 9 9 10 10 12 10 10 11 8 8 13 12 10 11 10 10 8 5 5
11 11 11 12 13 13 14 14 13 13 11 9 8 7 5 4 4 3 4 5 6 7 7 8 8 9 10 10 11 11 11 11 11 12 13 14 14 10 10 9 9 8 5
8 9 11 13 13 14 14 15 13 13 11 10 9 7 6 5 4 3 4 5 6 6 7 7 7 9 9 9 11 12 10 11 12 12 13 14 11 14 13 9 12 10 8
8 10 11 13 14 14 15 14 14 13 11 10 10 8 7 5 4 3 4 5 5 6 7 7 8 8 9 9 10 11 10 10 11 11 12 13 14 13 14 12 10 11 8
9 10 12 13 14 15 15 15 14 13 12 11 9 9 8 6 4 3 4 4 4 6 7 6 6 8 8 8 9 11 11 10 10 10 11 11 13 14 15 11 11 11 10
11 13 14 14 15 16 15 15 14 13 13 11 9 8 8 6 5 4 3 4 4 5 5 5 6 7 8 9 11 11 11 10 11 10 11 11 14 20 21 10 10 10 9
14 15 15 17 19 20 18 16 15 14 13 11 10 8 8 6 5 4 4 4 3 4 5 6 6 7 7 18 17 16 10 10 11 11 11 12 13 18 23 21 17 15 11
15 17 21 20 19 20 19 19 16 13 12 11 10 9 8 7 5 4 5 4 3 3 5 5 6 7 9 19 19 18 9 9 10 10 10 10 10 14 12 16 15 13 17
16 14 14 15 16 16 17 16 15 14 12 11 11 9 9 8 6 5 5 3 2 3 3 4 5 6 6 18 19 16 9 8 9 9 10 10 12 13 14 12 9 9 9
6 10 13 14 16 18 18 18 16 14 13 12 12 11 10 9 7 6 6 3 3 2 3 2 5 6 7 18 19 11 9 9 9 8 9 10 11 19 21 12 11 9 9
3 8 11 14 17 17 19 19 17 17 16 14 13 11 10 10 9 8 6 3 2 3 3 4 4 5 7 16 18 13 7 8 7 7 9 15 14 19 20 11 10 10 10
4 7 13 15 16 18 19 19 18 18 15 14 13 11 9 10 9 7 4 4 4 4 4 4 4 4 5 9 18 18 7 6 6 7 8 8 19 17 19 18 11 11 9
7 8 9 10 12 16 19 18 18 15 15 15 14 12 11 9 7 9 6 4 4 5 4 3 4 4 5 12 17 17 15 13 6 7 7 8 17 17 19 15 19 18 11
9 7 11 11 11 14 16 18 16 17 17 17 15 13 11 10 8 9 8 5 4 4 4 3 4 4 4 4 14 16 15 15 7 6 10 14 17 18 14 21 22 14 8
9 8 12 11 12 12 13 13 16 17 18 17 15 13 12 10 8 6 6 6 5 4 4 3 3 3 3 4 5 7 7 11 9 9 6 9 12 16 13 10 13 9 8
6 10 12 11 13 14 13 15 17 19 17 16 14 13 10 11 9 6 6 6 3 5 4 3 2 1 3 7 12 10 6 6 9 3 5 7 8 9 9 9 9 9 10
8 7 8 10 13 14 13 16 18 19 19 17 13 12 11 9 8 8 7 13 11 10 10 9 4 1 7 9 13 14 15 15 13 6 6 7 7 8 8 8 8 9 10
Wind_Direction
211 174 187 184 168 176 165 164 147 132 116 108 84 51 2 359 11 9 7 8 6 359 346 351 349 353 349 351 349 346 344 344 342 331 337 329 328 359 343 346 351 349 354
191 189 187 182 179 175 166 163 144 142 105 96 110 191 281 258 324 357 7 3 1 359 354 350 344 354 348 354 353 357 350 345 348 341 324 339 337 349 334 341 343 344 354
197 193 188 185 179 175 172 165 159 141 119 105 129 97 107 349 344 357 359 0 7 1 352 347 348 353 354 352 351 353 360 351 350 353 350 341 343 324 344 343 343 341 349
198 192 185 183 181 180 164 157 153 139 119 100 83 71 66 9 347 333 345 354 6 2 356 352 353 354 348 352 353 349 357 358 348 345 356 340 321 338 329 338 342 338 345
191 191 187 180 177 161 166 156 146 134 119 102 101 92 79 7 335 349 356 0 4 5 360 355 353 354 351 351 352 352 359 2 344 344 341 339 339 346 320 326 335 336 347
196 189 181 168 158 151 155 155 147 138 133 121 110 98 76 19 15 1 4 360 1 358 360 354 355 352 348 351 351 350 357 359 355 355 345 338 343 342 338 329 337 332 332
176 168 166 166 160 163 163 157 154 149 149 141 129 108 96 62 39 9 8 359 357 356 353 349 351 352 342 346 352 354 356 359 0 356 347 335 339 335 335 328 336 329 321
176 176 172 170 170 167 166 160 158 152 159 155 135 114 104 80 56 21 5 359 356 339 348 345 345 348 347 350 360 357 358 357 2 1 354 338 339 339 337 334 333 336 334
182 175 170 172 170 169 169 162 156 155 165 157 142 132 111 84 59 26 14 356 359 347 352 346 343 348 355 356 350 359 359 359 360 360 356 346 340 339 335 335 337 335 324
178 169 170 171 171 169 159 155 158 160 163 154 150 144 121 101 80 45 24 9 358 356 355 352 345 349 356 360 6 0 359 356 359 359 354 350 343 341 340 337 339 339 323
186 175 170 169 165 160 158 157 156 153 160 160 151 147 131 111 86 57 27 18 356 3 2 352 345 350 353 358 2 4 8 0 352 357 355 352 349 341 339 337 346 347 334
171 167 161 159 163 163 163 162 158 160 163 153 152 148 132 123 106 77 42 27 4 7 5 354 353 350 352 354 3 1 2 4 358 357 356 352 348 346 341 334 356 346 341
159 157 160 173 172 171 168 164 163 163 154 152 150 149 137 134 120 88 60 43 7 11 12 5 2 348 341 344 7 359 354 0 357 356 356 349 348 342 339 339 354 353 349
183 177 177 181 179 176 172 167 165 163 154 150 151 152 145 144 129 101 69 50 13 19 20 1 351 344 330 346 15 3 354 354 355 355 356 353 348 337 333 343 357 354 358
191 194 190 183 179 177 175 170 165 161 155 151 150 147 135 129 123 107 84 65 40 32 27 358 358 341 346 3 12 11 355 353 353 353 360 354 343 342 342 351 0 358 7
207 202 191 186 186 181 177 169 165 164 156 151 149 138 134 134 137 123 97 80 44 35 44 17 1 352 349 2 19 7 359 357 356 350 358 352 351 344 342 357 13 15 14
213 201 196 191 188 183 172 172 164 152 153 147 143 144 144 139 149 135 114 88 48 45 43 19 9 356 342 0 17 13 4 0 357 350 356 355 350 341 345 355 10 14 20
228 204 189 185 182 172 167 156 154 156 153 147 148 147 151 145 145 138 123 116 74 52 38 17 2 359 343 356 10 17 4 2 358 349 351 350 344 343 4 0 4 7 3
213 191 182 171 164 165 160 154 156 153 152 157 157 159 158 150 150 147 144 130 116 77 58 30 9 1 343 352 14 30 4 5 0 347 343 345 343 4 14 11 7 7 9
156 150 154 153 157 159 155 157 161 160 168 163 159 158 158 154 156 149 148 144 146 104 70 49 25 356 338 344 18 33 6 9 2 350 345 345 19 16 21 18 6 9 360
115 130 148 159 159 154 158 165 164 175 160 147 144 151 159 154 153 143 139 147 124 100 65 49 19 0 337 328 19 21 24 29 5 359 348 343 15 20 26 26 20 14 358
126 137 141 150 148 160 161 165 175 153 143 142 145 153 154 152 153 144 141 141 126 104 78 50 32 17 340 3 20 21 30 34 26 5 340 349 13 25 25 28 23 19 14
150 149 145 141 158 169 173 166 160 145 143 145 149 153 151 152 154 149 149 141 133 120 106 79 51 1 351 334 27 22 26 28 38 14 4 13 18 23 24 22 23 16 10
166 147 142 158 160 176 172 162 147 147 147 146 149 152 153 150 156 148 149 145 147 133 123 98 60 15 341 11 28 24 12 21 33 19 9 26 32 36 26 14 12 10 7
183 163 163 165 166 168 162 142 150 151 147 147 150 156 153 155 155 151 157 156 168 146 145 147 126 49 24 31 34 33 28 38 36 27 22 27 16 19 16 14 9 6 6
159 173 161 159 162 164 145 152 156 159 151 151 157 162 155 155 156 150 157 165 161 163 153 141 128 325 78 52 46 43 43 47 57 41 41 36 26 26 14 11 3 9 0